Location: Kellogg
(38.0159°N, 90.0546°W)
Time: 08:19:57
(UTC+00:00)

S-56A Canister/Altair - Pass Details

Date: 16 September 2024
Orbit: 636 x 2487 km, 38.9° (Epoch: 09 October)

Event Time Altitude Azimuth Distance (km) Brightness Sun altitude
Rises 05:25:00 0° 285° (WNW) 4,204 11.5 -49.0°
Enters shadow 05:27:20 - 282° (WNW) 3,507 11.0 -49.0°
Reaches altitude 10° 05:27:32 10° 281° (W) 3,451 - -49.0°
Maximum altitude 05:36:22 55° 207° (SSW) 2,098 - -49.3°
Drops below altitude 10° 05:49:07 10° 134° (SE) 4,867 - -49.5°
Sets 05:53:25 0° 131° (SE) 6,022 - -49.5°
